Regional Weather Roundup
Issued by NWS Cleveland, OH

Home | Current Version | Previous Version | Graphics & Text | Print | Product List | Glossary On
Versions: 1 2 3 4 5 6 7 8 9 10 11 12 13 14 15 16 17 18 19 20 21 22 23 24 25 26 27 28 29 30 31 32 33 34 35 36 37 38 39 40 41 42 43 44 45 46 47 48 49 50
226
ASUS41 KCLE 202102
RWRCLE
OHIO REGIONAL WEATHER ROUNDUP
NATIONAL WEATHER SERVICE CLEVELAND, OH
500 PM EDT FRI OCT 20 2017

NOTE: "FAIR" INDICATES FEW OR NO CLOUDS BELOW 12,000 FEET WITH NO
SIGNIFICANT WEATHER AND/OR OBSTRUCTIONS TO VISIBILITY.

OHZ001>008-015>018-024>027-034-035-043-044-202200-
   NORTHWEST OHIO

CITY           SKY/WX    TMP DP  RH WIND       PRES   REMARKS
DEFIANCE       SUNNY     75  50  41 S8        30.16F
FINDLAY        SUNNY     77  46  33 S9        30.17F
TOLEDO EXPRESS SUNNY     76  50  40 SW7       30.16F
TOLEDO EXEC    SUNNY     75  45  34 S9        30.18F
LIMA           SUNNY     75  48  38 S9        30.18F
$$

OHZ009>014-019>023-028>033-038-089-202200-
   NORTHEAST OHIO

CITY           SKY/WX    TMP DP  RH WIND       PRES   REMARKS
CLE-HOPKINS    MOSUNNY   74  41  30 S5        30.22F
CLE-LAKEFRONT  SUNNY     70  52  52 NE6       30.19F
CUY CO. ARPT   SUNNY     75  37  25 SW8       30.22F
LORAIN-ELYRIA  SUNNY     73  36  25 S6        30.21F
ASHTABULA      SUNNY     71  36  27 SW6       30.23F
AKRON-CANTON   MOSUNNY   72  41  32 SW5       30.23F
WOOSTER        SUNNY     72  38  29 S3        30.23F
MANSFIELD      SUNNY     74  39  28 S8        30.22F
YOUNGSTOWN     MOSUNNY   71  34  25 CALM      30.23F
$$

OHZ042-051>053-060>062-070>072-077>081-202200-
  SOUTHWEST OHIO

CITY           SKY/WX    TMP DP  RH WIND       PRES   REMARKS
CINC-COVINGTON PTSUNNY   75  55  49 S5        30.20F
CINC-LUNKEN    SUNNY     75  55  49 S7        30.20F
HAMILTON       SUNNY     76  54  46 VRB5      30.20F
DAYTON         MOSUNNY   73  54  51 S9        30.20F
WRIGHT-PAT AFB MOSUNNY   76  50  40 S6        30.19F
DAYTON GENERAL SUNNY     74  53  48 S6        30.19F
WILMINGTON     SUNNY     75  52  44 S5        30.20F
$$

OHZ036-037-039>041-045>050-054>059-063>069-073>076-082>088-202200-
  CENTRAL AND SOUTHEAST OHIO

CITY           SKY/WX    TMP DP  RH WIND       PRES   REMARKS
COLUMBUS       MOSUNNY   74  40  29 S6        30.21F
OSU AIRPORT    SUNNY     72  43  35 SE6       30.22S
BOLTON FIELD   SUNNY     73  46  38 E3        30.22F
RICKENBACK AFB SUNNY     74  42  31 SE3       30.21S
NEWARK         SUNNY     75  34  22 SE3       30.22F
MARION         SUNNY     74  37  26 S7        30.21F
LANCASTER      SUNNY     72  45  37 VRB5      30.22F
ZANESVILLE     SUNNY     74  39  28 CALM      30.23F
NEW PHILLY     NOT AVBL
$$




USA.gov is the U.S. government's official web portal to all federal, state and local government web resources and services.